Regional Weather Roundup
Issued by NWS New Orleans/Baton Rouge, LA

Home | Current Version | Previous Version | Graphics & Text | Print | Product List | Glossary On
Versions: 1 2 3 4 5 6 7 8 9 10 11 12 13 14 15 16 17 18 19 20 21 22 23 24 25 26 27 28 29 30 31 32 33 34 35 36 37 38 39 40 41 42 43 44 45 46 47 48 49 50
634
ASUS44 KLIX 310610
RWRLIX
NEW ORLEANS REGIONAL WEATHER ROUNDUP
NATIONAL WEATHER SERVICE NEW ORLEANS LA
100 AM CDT FRI OCT 31 2014

NOTE: "FAIR" INDICATES FEW OR NO CLOUDS BELOW 12,000 FEET WITH NO
      SIGNIFICANT WEATHER AND/OR OBSTRUCTIONS TO VISIBILITY.
      SKY/WX - SKY CONDITION AND SIGNIFICANT WEATHER.
      TMP - AIR TEMPERATURE.     DP    - DEWPOINT TEMPERATURE.
      RH  - RELATIVE HUMIDITY.   PRES  - PRESSURE.
      HI  - HEAT INDEX.          WCI   - WIND CHILL INDEX.

*  THESE STATIONS ARE NOT NWS OR FAA STATIONS AND ARE NOT UNDER
   NWS QUALITY CONTROL.

LAZ038-040-048-061>063-065>067-069-310700-
SOUTHEAST LOUISIANA

CITY           SKY/WX    TMP DP  RH WIND       PRES   REMARKS
N.O. AUDUBON     N/A     58  55  91 MISG        N/A
6HR MIN TEMP:  56; 6HR MAX TEMP:  66;

N.O. INTL ARPT CLEAR     56  51  84 NW6       30.05S
6HR MIN TEMP:  54; 6HR MAX TEMP:  67;

N.O. LAKEFRONT CLEAR     67  49  52 N12       30.05S
6HR MIN TEMP:  67; 6HR MAX TEMP:  71;

N.O. DOWNTOWN*   N/A     66  43  42 N3        30.05S
6HR MIN TEMP:  66; 6HR MAX TEMP:  70;

SLIDELL        CLEAR     47  43  86 N3        30.05S
6HR MIN TEMP:  47; 6HR MAX TEMP:  59;

BATON ROUGE    CLEAR     50  47  89 CALM      30.07S
6HR MIN TEMP:  50; 6HR MAX TEMP:  61;

BOOTHVILLE     CLEAR     64  51  62 N3        30.03F
6HR MIN TEMP:  61; 6HR MAX TEMP:  67;

BELLE CHASSE   CLEAR     50  46  86 CALM      30.04F
6HR MIN TEMP:  50; 6HR MAX TEMP:  57;

BOGALUSA*        N/A     46  43  88 CALM      30.07S
6HR MIN TEMP:  46; 6HR MAX TEMP:  59;

NEW ROADS*       N/A     48  47  94 NW3       30.08R
6HR MIN TEMP:  48; 6HR MAX TEMP:  63;

GONZALES*        N/A     51  51 100 CALM      30.06F
6HR MIN TEMP:  51; 6HR MAX TEMP:  60;

HAMMOND*       CLEAR     48  45  87 CALM      30.07F
HOUMA*         CLEAR     54  50  85 NW5       30.06S
6HR MIN TEMP:  50; 6HR MAX TEMP:  61;

PORT FOURCHON* CLEAR     64  52  63 N7        30.07F

$$

MSZ070-080>082-310700-
SOUTHERN MISSISSIPPI

CITY           SKY/WX    TMP DP  RH WIND       PRES   REMARKS
MCCOMB         CLEAR     49  44  83 NW3       30.07S
6HR MIN TEMP:  48; 6HR MAX TEMP:  61;

GULFPORT       CLEAR     49  45  86 NW3       30.04R
6HR MIN TEMP:  49; 6HR MAX TEMP:  61;

BILOXI         CLEAR     56  47  70 NW3       30.04R
6HR MIN TEMP:  55; 6HR MAX TEMP:  66;

PASCAGOULA     CLEAR     42  40  92 CALM      30.03F
6HR MIN TEMP:  41; 6HR MAX TEMP:  53;


$$

COASTAL OBSERVATIONS
LAKE AND NEARSHORE STATIONS

STATION/POSITION TIME  TEMP    WIND        PRES    WAVE
                       AIR SEA DIR/SP/G            HT/PER
                 (UTC) (F)     (DEG/KT/KT) (MB)    (FT/S)
PASCAGOULA       0600   54     350/  6/  6 1016.3
WAVELAND YACHT   0600   61     340/  5/  7 1016.5
GRAND ISLE       0600   68 74  340/  6/  8 1017.6
SOUTHWEST PASS   0600   70 77              1017.0
NEW CANAL        0600   69 70   10/  8/ 10 1017.8
SHELL BEACH      0600   69 68   10/ 10/ 11 1016.9

OFFSHORE STATIONS

STATION/POSITION TIME  TEMP    WIND        PRES    WAVE
                       AIR SEA DIR/SP/G            HT/PER
                 (UTC) (F)     (DEG/KT/KT) (MB)    (FT/S)
64 S DAUPHIN ISL 0518   70 77  360/ 14/ 17 1016.5    3/ 5

$$




USA.gov is the U.S. government's official web portal to all federal, state and local government web resources and services.